Погода в Черки-Кильдуразах

Россия / Республика Татарстан     55°06′20″N   48°16′00″E
темп.,
°C
ветер,
м/с
пор.,
м/с
влажн.,
%
обл.,
%
осадки,
мм/ч
давл.,
гПа
погр.,
м
8 августа, пн
пн800:00+20з0062100 0.0 102011
03:00+19вюв116584 0.0 102011
06:00+21в116297 0.0 102016
09:00+25св015347 0.0 1020261
12:00+29с214165 0.0 10201497
15:00+29ссв323861 0.0 10202001
18:00+24юв356372 0.0 1020119
21:00+23зсз0060100 0.0 102011
9 августа, вт
вт900:00+21сз116581 0.0 102011
03:00+20всв117070 0.0 102011
06:00+21сз007086 0.0 102028
09:00+25з0056100 0.0 1020307
12:00+28зсз114493 0.0 10191166
15:00+29ссз113899 0.0 10181777
18:00+27в1151100 0.0 101713
21:00+22ююз00615 0.0 101811
10 августа, ср
ср1000:00+21сз34665 0.1 101861
03:00+19в127879 0.1 101711
06:00+20з127455 0.0 101868
09:00+25зюз12565 0.0 1018535
12:00+28з124664 0.0 10171325
15:00+30ю233719 0.0 10162326
18:00+26юз2358100 0.0 101553
21:00+18ссз3796100 2.2 1018274
11 августа, чт
чт1100:00+17с5794100 0.6 1018382
03:00+16ссз4896100 0.6 1019390
06:00+15с5987100 0.0 1021399
09:00+18с5764100 0.0 1022683
12:00+21с5651100 0.0 10231246
15:00+22с454916 0.0 10221605
18:00+20ссв34590 0.0 1023162
21:00+16с11650 0.0 102311
12 августа, пт
пт1200:00+15ю11710 0.0 102410
03:00+14зюз227882 0.0 102413
06:00+15зюз24765 0.0 1024128
09:00+21з455851 0.0 1024695
12:00+24зсз4545100 0.0 10231543
15:00+24зсз564199 0.0 10221641
18:00+22сз2256100 0.0 102223
21:00+18зсз116778 0.0 102311